Location: Grand Mazuras
(45.9128°N, 1.7636°E)
Time: 06:10:38
(UTC+00:00)

Landsat 7 - Pass Details

Date: 18 April 2021
Orbit: 701 x 703 km, 98.0° (Epoch: 15 May)

Event Time Altitude Azimuth Distance (km) Brightness Sun altitude
Exits shadow 20:20:36 25° 144° (SE) 1,398 4.8 -15.9°
Maximum altitude 20:23:15 60° 72° (ENE) 805 3.9 -16.2°
Drops below altitude 10° 20:27:57 10° 354° (N) 2,181 7.0 -16.9°
Sets 20:30:14 0° 350° (N) 3,103 7.9 -17.2°
